Weather reports worldwide

Advertisment
Ramona, ca, United States of America (2074836): temperature & dewpoint: 06.07.2020 05:00:00 - 12.07.2020 05:00:00 (PDT)Ramona, ca, United States of America (2074836): wind speed: 06.07.2020 05:00:00 - 12.07.2020 05:00:00 (PDT)Ramona, ca, United States of America (2074836): wind direction: 06.07.2020 05:00:00 - 12.07.2020 05:00:00 (PDT)Ramona, ca, United States of America (2074836): reduced air pressure: 06.07.2020 05:00:00 - 12.07.2020 05:00:00 (PDT)Ramona, ca, United States of America (2074836): visibility: 06.07.2020 05:00:00 - 12.07.2020 05:00:00 (PDT)
Date & Time tt [°C] td [°C] ff [km/h] ff [kn] dd ppp [hPa] vv [km]
12.07.2020 05:00:00 16,7 11,7 0 0 N 1012,4 16
12.07.2020 04:00:00 17,8 12,2 0 0 N 1012,7 16
12.07.2020 03:00:00 18,3 12,2 0 0 N 1013,2 16
12.07.2020 02:00:00 18,9 12,2 0 0 N 1013,2 16
12.07.2020 01:00:00 19,4 12,8 0 0 N 1013,7 16
12.07.2020 00:00:00 19,4 12,8 0 0 N 1014,4 16
11.07.2020 23:00:00 21,1 12,2 0 0 N 1014,6 16
11.07.2020 22:00:00 21,7 13,3 0 0 N 1014,5 16
11.07.2020 21:00:00 23,3 13,3 0 0 N 1014,0 16
11.07.2020 20:00:00 26,1 12,8 5 3 W 1013,5 16
11.07.2020 19:00:00 30,0 6,7 13 7 WNW 1013,0 16
11.07.2020 18:00:00 32,2 3,9 18 10 W 1013,0 16
11.07.2020 17:00:00 33,3 7,2 21 11 W 1013,3 16
11.07.2020 16:00:00 35,0 7,8 22 12 W 1013,4 16
11.07.2020 15:00:00 36,7 5,6 24 13 W 1013,4 16
11.07.2020 14:00:00 37,2 14,4 21 11 W 1013,7 16
11.07.2020 13:00:00 38,3 10,6 15 8 WSW 1013,7 16
11.07.2020 12:00:00 36,1 9,4 15 8 NW 1014,4 16
11.07.2020 11:00:00 34,4 7,8 15 8 WNW 1014,8 16
11.07.2020 10:00:00 32,8 10,6 9 5 WNW 1014,9 16
11.07.2020 09:00:00 30,6 8,9 0 0 N 1015,1 16
11.07.2020 08:00:00 25,6 11,7 0 0 N 1015,3 16
11.07.2020 07:00:00 19,4 13,9 0 0 N 1015,1 16
11.07.2020 06:00:00 16,1 12,2 0 0 N 1015,2 16
11.07.2020 05:00:00 17,2 11,7 0 0 N 1014,5 16
11.07.2020 04:00:00 17,2 12,8 0 0 N 1013,9 16
11.07.2020 03:00:00 17,8 13,3 0 0 N 1013,9 16
11.07.2020 02:00:00 17,8 12,8 0 0 N 1014,1 16
11.07.2020 01:00:00 18,9 13,9 0 0 N 1014,4 16
11.07.2020 00:00:00 20,0 13,3 0 0 N 1014,4 16
10.07.2020 23:00:00 21,1 13,3 0 0 N 1014,3 16
10.07.2020 22:00:00 21,7 14,4 0 0 N 1014,2 11
10.07.2020 21:00:00 22,8 13,9 9 5 W 1013,5 11
10.07.2020 20:00:00 25,6 13,3 9 5 W 1013,5 10
10.07.2020 19:00:00 30,0 11,7 11 6 W 1013,2 16
10.07.2020 18:00:00 32,2 10,0 16 9 WNW 1013,1 15
10.07.2020 17:00:00 32,8 10,6 18 10 W 1013,6 15
10.07.2020 16:00:00 33,9 11,7 18 10 W 1013,8 16
10.07.2020 15:00:00 34,4 13,9 18 10 W 1013,9 16
10.07.2020 14:00:00 35,0 12,8 9 5 - 1014,2 16
10.07.2020 13:00:00 34,4 11,7 13 7 WNW 1014,2 16
10.07.2020 12:00:00 33,3 9,4 18 10 WNW 1014,3 16
10.07.2020 11:00:00 30,6 12,8 16 9 WNW 1014,7 16
10.07.2020 10:00:00 31,1 7,8 0 0 N 1014,4 16
10.07.2020 09:00:00 26,7 12,2 0 0 N 1014,8 16
10.07.2020 08:00:00 21,1 13,3 0 0 N 1014,5 16
10.07.2020 07:00:00 16,7 12,8 0 0 N 1014,2 16
10.07.2020 06:00:00 13,3 11,7 0 0 N 1013,8 15
10.07.2020 05:00:00 13,9 11,7 0 0 N 1013,5 16
10.07.2020 04:00:00 12,8 11,7 0 0 N 1013,3 15
10.07.2020 03:00:00 14,4 11,7 0 0 N 1013,1 16
10.07.2020 02:00:00 13,3 11,7 0 0 N 1013,2 16
10.07.2020 01:00:00 15,6 12,8 0 0 N 1013,1 16
10.07.2020 00:00:00 16,7 12,8 0 0 N 1013,1 16
09.07.2020 23:00:00 17,8 14,4 0 0 N 1013,1 16
09.07.2020 22:00:00 16,7 13,3 8 4 W 1012,7 16
09.07.2020 21:00:00 17,8 13,3 8 4 W 1012,0 16
09.07.2020 20:00:00 21,1 13,9 9 5 W 1011,9 16
09.07.2020 19:00:00 25,0 13,9 13 7 W 1011,8 16
09.07.2020 18:00:00 27,2 13,3 15 8 W 1011,4 16
09.07.2020 17:00:00 28,9 12,8 15 8 W 1011,5 16
09.07.2020 16:00:00 30,0 12,8 16 9 W 1011,4 16
09.07.2020 15:00:00 30,6 13,3 16 9 W 1011,4 16
09.07.2020 14:00:00 31,1 13,9 16 9 W 1011,3 16
09.07.2020 13:00:00 30,6 13,3 16 9 WNW 1011,3 16
09.07.2020 12:00:00 30,0 12,2 15 8 WNW 1011,4 16
09.07.2020 11:00:00 27,8 10,6 15 8 WNW 1011,4 16
09.07.2020 10:00:00 26,1 11,1 13 7 WNW 1011,4 16
09.07.2020 09:00:00 23,3 6,1 0 0 N 1011,5 16
09.07.2020 08:00:00 15,6 12,8 0 0 N 1011,7 16
09.07.2020 07:00:00 10,6 10,0 0 0 N 1011,8 15
09.07.2020 06:00:00 9,4 9,4 0 0 N 1011,3 -
09.07.2020 05:00:00 9,4 9,4 0 0 N 1010,7 0,4
09.07.2020 04:00:00 9,4 8,3 0 0 N 1010,7 2,8
09.07.2020 03:00:00 11,7 10,0 0 0 N 1010,8 13
09.07.2020 02:00:00 11,7 10,0 0 0 N 1011,1 8
09.07.2020 01:00:00 13,3 11,1 0 0 N 1011,2 16
09.07.2020 00:00:00 14,4 11,7 0 0 N 1011,4 16
08.07.2020 23:00:00 15,6 12,2 0 0 N 1011,5 16
08.07.2020 22:00:00 16,7 12,8 0 0 N 1011,0 16
08.07.2020 21:00:00 17,8 13,3 5 3 SW 1010,6 16
08.07.2020 20:00:00 20,0 13,9 11 6 W 1010,8 16
08.07.2020 19:00:00 24,4 13,9 13 7 W 1010,5 16
08.07.2020 18:00:00 26,7 13,3 21 11 WNW 1010,5 16
08.07.2020 17:00:00 27,8 13,9 18 10 W 1010,5 16
08.07.2020 16:00:00 30,0 14,4 21 11 W 1010,3 16
08.07.2020 15:00:00 31,1 14,4 18 10 W 1010,4 16
08.07.2020 14:00:00 30,6 15,0 16 9 W 1010,8 16
08.07.2020 13:00:00 31,7 13,3 15 8 W 1011,1 16
08.07.2020 12:00:00 27,8 15,0 15 8 WNW 1011,5 16
08.07.2020 11:00:00 25,6 14,4 16 9 WNW 1011,7 16
08.07.2020 10:00:00 25,0 12,8 13 7 WNW 1011,5 16
08.07.2020 09:00:00 22,2 12,2 5 3 NNW 1011,7 16
08.07.2020 08:00:00 15,6 13,3 0 0 N 1011,7 16
08.07.2020 07:00:00 12,8 12,8 0 0 N 1011,3 0,4
08.07.2020 06:00:00 10,0 10,0 0 0 N 1011,5 0,8
08.07.2020 05:00:00 9,4 8,9 0 0 N 1011,1 0,4
08.07.2020 04:00:00 10,6 10,6 0 0 N 1010,7 4,0
08.07.2020 03:00:00 13,3 11,7 0 0 N 1010,4 15
08.07.2020 02:00:00 13,9 12,2 0 0 N 1010,7 15
08.07.2020 01:00:00 13,9 12,2 0 0 N 1010,9 13
08.07.2020 00:00:00 14,4 12,8 0 0 N 1011,0 13
07.07.2020 23:00:00 15,0 12,8 0 0 N 1010,9 15
07.07.2020 22:00:00 17,2 13,9 0 0 N 1010,5 16
07.07.2020 21:00:00 17,2 14,4 9 5 W 1010,3 16
07.07.2020 20:00:00 21,1 15,6 9 5 W 1010,0 16
07.07.2020 19:00:00 26,1 15,6 13 7 W 1009,9 16
07.07.2020 18:00:00 28,9 15,0 15 8 WNW 1009,8 16
07.07.2020 17:00:00 30,0 14,4 11 6 W 1010,0 16
07.07.2020 16:00:00 30,6 13,3 13 7 WSW 1010,3 13
07.07.2020 15:00:00 31,7 14,4 21 11 W 1010,9 11
07.07.2020 14:00:00 32,8 15,6 18 10 W 1010,8 13
07.07.2020 13:00:00 32,8 13,9 15 8 WNW 1011,0 16
07.07.2020 12:00:00 31,1 15,0 16 9 WNW 1011,5 16
07.07.2020 11:00:00 28,9 13,3 16 9 WNW 1011,8 16
07.07.2020 10:00:00 29,4 10,0 8 4 WNW 1011,7 16
07.07.2020 09:00:00 23,9 11,7 0 0 N 1011,7 16
07.07.2020 08:00:00 19,4 12,2 9 5 WNW 1011,5 16
07.07.2020 07:00:00 13,3 10,6 0 0 N 1011,2 16
07.07.2020 06:00:00 11,7 9,4 5 3 E 1010,7 16
07.07.2020 05:00:00 11,7 9,4 0 0 N 1010,7 16
07.07.2020 04:00:00 12,8 11,1 0 0 N 1010,4 15
07.07.2020 03:00:00 14,4 10,6 0 0 N 1010,4 16
07.07.2020 02:00:00 13,9 11,7 0 0 N 1010,5 16
07.07.2020 01:00:00 15,0 12,8 0 0 N 1010,8 16
07.07.2020 00:00:00 16,1 13,3 0 0 N 1010,9 16
06.07.2020 23:00:00 16,1 13,9 0 0 N 1010,9 15
06.07.2020 22:00:00 18,9 13,3 0 0 N 1010,4 16
06.07.2020 21:00:00 19,4 14,4 0 0 N 1010,1 16
06.07.2020 20:00:00 24,4 14,4 9 5 WNW 1010,0 16
06.07.2020 19:00:00 28,3 13,9 15 8 NW 1010,2 16
06.07.2020 18:00:00 30,6 11,7 16 9 W 1010,3 16
06.07.2020 17:00:00 31,7 10,0 21 11 W 1010,6 16
06.07.2020 16:00:00 33,9 10,6 21 11 W 1010,6 16
06.07.2020 15:00:00 34,4 10,6 18 10 W 1010,9 16
06.07.2020 14:00:00 34,4 11,7 16 9 WNW 1011,0 16
06.07.2020 13:00:00 35,0 10,0 16 9 WNW 1011,1 16
06.07.2020 12:00:00 34,4 6,1 15 8 W 1011,3 16
06.07.2020 11:00:00 33,3 6,7 15 8 WNW 1011,4 16
06.07.2020 10:00:00 32,2 1,7 9 5 SW 1011,3 16
06.07.2020 09:00:00 28,9 2,8 5 3 - 1011,3 16
06.07.2020 08:00:00 22,8 5,0 5 3 E 1011,1 16
06.07.2020 07:00:00 15,6 8,3 9 5 ESE 1010,9 16
06.07.2020 06:00:00 10,6 7,8 5 3 ESE 1010,7 16
06.07.2020 05:00:00 10,6 7,8 0 0 N 1010,1 16

tt = temperature
td = dewpoint
ff = wind speed
dd = wind direction
ppp = reduced air pressure
vv = visibility

Next stations